Temperature
16 16 16 17 17 17 17 17 17 17 17 17 16 16 16 16 16 16 16 16 16 17 17 17 18 18 18 18 17 17 17 17 17 17 17 17 17 17 17 17 16 16 16
16 16 16 16 17 17 17 17 17 16 16 16 16 16 15 16 16 16 16 16 16 16 17 17 18 18 18 18 18 17 17 17 17 17 17 17 17 17 17 16 16 16 16
16 16 16 17 17 17 17 17 17 16 16 16 16 16 16 16 16 16 16 16 16 16 16 17 17 17 17 18 18 17 17 17 17 17 16 16 17 16 16 16 16 16 16
16 16 16 17 17 17 17 17 17 17 16 16 16 16 16 15 15 15 16 16 16 16 16 16 16 17 17 17 17 17 17 17 17 16 16 16 16 16 16 16 16 16 16
16 16 16 17 17 17 17 17 17 17 17 16 16 16 16 15 15 15 15 15 15 16 16 16 16 16 16 16 16 16 17 17 16 16 16 16 15 15 15 15 16 16 16
16 16 16 16 16 16 16 16 16 17 16 16 16 16 15 15 15 15 15 15 15 15 15 15 15 16 16 16 16 16 16 16 16 16 16 16 15 15 15 14 15 15 16
15 16 16 16 16 16 16 16 16 16 16 16 16 15 15 15 15 14 14 14 14 14 14 14 14 14 15 15 15 15 15 15 15 15 15 15 15 15 14 14 14 14 14
15 15 15 15 15 15 15 15 15 15 15 15 15 15 14 14 14 14 13 13 13 13 13 13 13 13 13 14 14 14 15 15 15 15 15 15 15 15 14 14 13 13 13
15 15 15 15 15 15 15 14 14 14 14 14 14 14 14 13 13 13 13 12 12 12 12 12 12 12 12 12 12 13 13 13 14 14 14 14 14 14 14 14 13 13 12
15 15 15 15 15 14 14 14 14 13 13 13 13 13 13 13 13 12 12 12 12 11 11 11 11 11 11 11 12 12 12 12 13 13 13 14 14 14 14 14 13 13 12
15 15 15 15 14 14 14 13 13 13 13 13 13 13 12 12 12 12 12 11 11 11 11 10 10 10 10 11 11 11 11 12 12 12 12 13 13 13 13 13 13 13 13
15 15 14 14 14 13 13 13 13 13 13 12 12 12 12 12 12 12 12 11 11 11 11 10 10 10 10 10 10 10 10 11 11 11 12 12 12 12 13 13 13 13 13
14 14 13 13 13 13 13 12 12 12 12 12 12 12 12 12 12 12 11 11 11 11 11 10 10 10 10 10 10 10 10 10 10 10 11 11 12 12 12 13 13 13 13
14 13 13 12 12 12 12 12 12 12 11 11 11 11 11 11 11 11 11 11 11 11 11 10 10 10 10 10 9 9 9 10 10 10 10 11 11 11 12 12 13 13 13
13 12 12 12 11 11 11 11 11 11 10 10 10 11 11 11 11 11 11 11 11 11 10 10 10 10 10 9 9 9 9 9 9 10 10 10 10 11 11 12 12 12 12
12 12 11 11 10 10 10 9 9 9 9 9 9 9 9 9 10 10 10 10 10 10 10 10 10 10 9 9 9 9 9 9 9 9 9 10 10 11 11 11 12 12 12
11 11 10 10 9 9 8 8 8 8 7 7 7 7 8 8 8 9 9 9 9 10 10 10 10 10 9 9 9 9 9 9 9 9 9 9 10 10 11 11 11 11 11
10 10 9 8 8 8 7 7 6 6 6 6 6 6 6 6 6 7 7 8 8 8 9 9 9 9 9 9 9 9 8 8 8 8 9 9 9 10 10 10 11 11 11
9 9 8 7 7 7 6 6 6 6 5 5 5 5 5 5 5 6 6 6 7 7 8 8 8 8 9 9 9 8 8 8 8 8 8 9 9 9 10 10 10 10 11
8 8 7 7 7 6 6 5 5 5 5 5 5 5 5 5 5 5 5 5 6 6 7 7 8 8 8 8 8 8 8 8 8 8 8 8 9 9 9 9 10 10 10
8 7 7 6 6 6 5 5 5 5 5 5 5 5 5 5 5 5 5 5 5 5 6 6 7 7 7 8 8 8 8 8 8 8 8 8 8 9 9 9 10 10 10
7 7 6 6 6 6 5 5 5 5 5 5 5 5 5 5 4 4 4 5 5 5 5 5 6 6 7 7 7 7 7 8 8 8 8 8 8 9 9 9 9 9 10
7 6 6 6 6 6 5 5 5 5 5 5 5 5 5 5 4 4 4 4 4 4 5 5 5 6 6 7 7 7 7 7 7 8 8 8 8 8 8 9 9 9 9
6 6 5 5 5 6 5 5 5 5 5 5 5 5 5 5 4 4 4 4 4 4 4 5 5 6 6 6 7 7 7 7 7 8 8 8 8 8 8 8 9 9 9
6 6 5 5 5 5 5 5 5 5 5 5 5 5 5 4 4 4 4 4 4 4 5 5 5 5 6 7 7 7 7 7 8 7 7 7 7 7 8 8 8 9 9
6 6 6 6 5 5 6 6 5 5 5 5 5 5 5 5 5 5 5 5 4 5 5 5 5 5 6 6 7 7 7 7 7 7 7 7 7 7 7 8 8 8 9
Wind_Speed
6 7 6 5 5 3 3 2 3 3 2 1 2 2 2 2 2 2 2 2 4 4 4 5 5 5 5 5 5 3 3 2 1 0 2 2 2 2 2 2 2 2 3
6 6 6 6 6 4 4 3 3 3 3 2 1 1 1 2 2 2 2 3 3 4 5 6 5 6 5 5 5 4 3 2 2 2 1 2 3 2 2 1 1 1 2
6 5 5 4 3 3 3 3 3 2 2 2 1 1 1 1 2 3 3 3 4 4 4 4 5 5 5 5 6 6 6 4 2 2 3 2 2 2 2 1 1 2 2
3 3 3 3 2 1 0 2 2 2 2 2 2 2 1 1 2 2 3 4 3 3 3 4 5 5 5 5 6 6 4 4 3 2 2 2 3 1 2 2 2 3 3
2 2 3 3 3 3 2 0 1 0 0 1 2 3 2 0 1 1 3 4 4 4 3 2 3 4 5 6 6 5 6 5 5 4 3 2 2 2 3 4 4 3 4
3 4 4 5 5 4 3 2 2 2 2 2 2 3 3 2 1 1 2 2 2 3 4 3 3 2 3 5 6 6 7 7 6 5 4 4 3 4 4 5 4 5 4
4 5 6 6 7 7 6 5 5 5 4 4 4 4 4 4 3 2 2 1 1 2 3 3 3 2 3 3 4 5 7 7 7 7 6 6 5 4 4 4 4 4 4
5 7 8 8 8 9 8 7 7 7 6 6 6 5 6 4 4 5 4 4 3 4 4 3 3 3 3 3 3 4 5 5 7 7 7 6 6 6 6 5 3 4 4
6 7 8 8 8 9 9 8 8 9 9 8 7 7 7 7 7 6 5 5 5 5 5 4 4 4 3 3 3 3 4 4 5 6 7 7 6 6 7 6 6 4 4
6 7 7 7 7 7 8 8 9 10 10 9 9 8 8 8 8 6 7 7 7 6 6 6 5 5 4 4 3 3 4 4 5 5 6 6 5 5 6 7 7 7 6
6 7 6 6 7 7 8 8 9 10 10 11 10 10 10 9 8 8 9 9 8 8 8 8 7 6 6 5 4 4 5 5 5 5 6 7 6 5 6 6 6 7 7
7 7 7 7 8 8 9 9 10 10 12 12 11 11 11 10 10 11 12 10 10 9 9 8 8 8 8 6 6 6 5 5 6 6 6 7 6 7 6 6 7 7 8
8 7 7 8 9 10 10 11 11 12 12 11 11 12 12 12 12 13 12 11 11 11 10 9 10 9 9 8 8 7 7 7 7 7 7 7 7 7 6 7 7 7 7
9 9 10 11 11 11 11 11 12 12 12 11 11 12 13 14 13 12 12 11 11 11 11 11 11 10 10 9 9 8 8 7 7 7 7 8 8 9 8 7 8 7 7
11 11 11 11 11 11 11 11 12 12 12 11 12 13 14 13 12 12 12 12 11 12 12 11 10 10 9 9 10 9 9 8 8 7 7 8 10 11 10 8 8 8 7
12 12 12 11 11 11 11 11 11 11 10 11 13 13 13 12 13 13 12 12 11 11 10 11 11 11 10 12 15 11 8 8 8 8 8 8 10 11 13 13 13 12 10
12 12 11 12 12 12 12 12 12 12 11 12 13 12 12 13 13 13 12 11 11 11 11 11 11 11 12 15 15 14 9 8 8 8 8 7 8 9 8 10 12 13 14
11 12 11 11 11 12 12 12 12 12 13 13 13 13 12 13 12 12 12 11 10 9 10 10 11 11 12 15 15 14 10 8 9 9 9 8 9 8 9 9 9 10 11
11 11 11 13 12 13 13 13 13 13 14 14 13 13 12 13 13 12 12 11 10 10 10 8 10 10 11 13 14 12 7 7 9 9 8 9 9 10 11 10 10 9 8
10 11 12 13 13 13 13 13 14 14 15 15 14 14 13 13 13 12 12 11 10 11 10 10 9 10 10 12 13 12 6 7 7 7 7 10 10 10 12 11 10 10 8
13 13 13 13 13 14 13 14 15 15 15 15 15 14 13 13 13 12 11 11 10 9 9 10 9 9 11 11 13 12 8 8 7 7 6 6 10 11 12 12 10 10 8
12 12 12 14 14 13 13 15 15 15 15 14 15 14 13 12 11 10 10 10 9 9 9 8 9 8 8 10 11 13 13 10 8 7 6 6 8 10 11 10 8 11 10
12 13 13 15 14 13 12 15 16 15 15 14 14 13 13 11 10 10 9 8 7 7 7 7 7 7 6 7 11 11 12 13 8 7 7 7 7 7 7 8 10 11 9
13 13 14 15 16 15 14 14 15 14 14 14 13 12 11 10 9 7 7 7 6 6 6 6 6 6 5 5 5 5 6 8 8 6 6 7 6 5 5 6 8 7 7
11 12 14 15 17 16 16 15 14 14 14 13 12 11 9 9 8 7 6 6 6 6 6 6 6 6 6 7 9 7 6 6 6 5 4 4 4 4 5 5 6 6 7
13 14 15 16 17 16 16 15 14 13 13 11 11 9 8 7 7 6 5 5 5 6 8 8 6 6 7 6 9 10 9 8 9 6 5 5 5 5 6 7 7 7 9
Wind_Direction
63 61 57 63 74 61 41 20 359 342 341 309 278 274 302 318 325 303 300 275 248 232 219 222 214 200 198 200 188 171 181 193 172 173 314 312 288 275 250 251 256 270 280
48 44 43 42 47 45 37 35 20 351 349 336 299 278 253 274 280 303 304 274 259 246 234 221 216 207 198 197 193 178 171 185 168 154 116 340 341 346 14 335 278 307 318
42 25 29 37 42 44 43 58 36 20 360 350 351 352 352 343 354 333 318 306 285 259 252 241 229 218 205 203 200 190 179 185 193 185 159 162 235 305 321 325 325 323 317
35 8 352 351 357 332 146 91 69 45 18 29 66 64 49 3 335 323 319 316 313 300 275 256 241 231 220 217 213 201 191 174 188 197 201 182 167 190 307 311 312 309 297
328 307 298 295 297 289 275 163 121 81 51 90 109 103 97 201 287 326 353 351 345 342 332 297 257 239 227 223 219 207 203 195 187 183 174 176 182 192 221 277 302 306 283
302 302 295 291 290 284 279 268 251 244 235 191 169 157 163 177 163 21 8 352 336 336 344 340 329 301 265 239 226 218 213 210 203 196 188 179 178 187 199 238 275 294 291
277 282 279 278 276 274 269 263 255 254 247 233 221 207 200 200 201 212 220 254 292 296 313 332 321 315 300 278 245 224 224 217 213 210 209 206 209 187 189 220 260 280 294
263 265 268 270 272 273 270 264 260 261 257 246 241 235 224 217 220 222 220 225 232 248 261 278 291 293 291 291 274 244 234 223 222 223 217 214 216 204 202 204 222 277 283
269 270 272 273 273 275 274 269 266 265 263 257 254 252 243 232 229 230 229 233 238 247 250 257 265 274 276 271 263 250 247 236 229 228 225 225 222 210 210 210 206 221 264
291 285 284 283 280 275 273 272 262 260 264 263 258 256 250 245 241 237 237 237 238 240 250 257 256 259 261 262 256 251 246 241 236 228 229 232 228 217 211 210 211 213 228
298 293 292 291 286 284 279 276 272 269 268 265 260 258 256 251 245 242 243 240 238 233 235 241 247 254 255 247 242 252 251 242 242 238 229 233 228 221 218 212 211 215 218
291 289 293 296 293 286 281 276 271 266 263 262 261 260 261 256 248 245 245 240 238 237 233 234 237 246 251 243 236 244 248 244 242 242 235 234 227 225 221 216 217 218 216
294 296 297 294 289 285 281 278 273 268 267 265 263 263 264 261 255 251 247 242 238 238 234 228 232 237 240 241 238 235 237 240 243 242 238 239 229 232 228 221 222 222 221
291 291 291 289 287 285 285 283 282 279 278 275 270 267 264 260 256 254 250 245 239 237 236 231 230 233 234 235 237 235 235 238 242 241 238 238 232 233 231 227 223 218 219
293 291 290 290 289 289 288 286 285 285 284 281 277 272 268 265 262 259 254 249 241 239 235 232 231 231 230 234 230 229 232 235 243 246 244 243 240 235 229 225 220 211 213
291 292 293 294 292 291 290 290 288 286 285 283 281 279 276 273 269 265 260 254 248 241 233 230 230 229 231 229 223 216 223 229 236 247 253 254 251 244 235 226 217 209 209
292 294 294 291 291 290 290 290 288 287 285 282 282 280 279 278 275 273 267 257 251 246 236 232 228 228 230 230 231 227 219 225 233 241 249 258 251 239 238 230 221 219 217
293 294 293 292 291 290 291 290 291 290 288 287 286 284 282 279 275 271 268 263 257 249 242 237 230 228 233 229 230 231 225 226 234 238 241 248 252 241 228 225 221 222 221
290 290 290 293 293 295 295 297 297 295 293 291 288 286 282 281 278 272 268 265 260 255 247 241 232 227 234 230 228 223 216 225 237 240 242 242 247 238 219 217 217 218 221
295 294 295 297 299 298 299 300 300 298 296 293 290 286 280 276 274 270 268 263 258 254 251 247 236 228 232 231 227 215 209 224 236 243 246 239 241 238 216 215 212 212 205
295 297 300 302 301 302 303 303 302 300 298 296 293 289 282 275 271 268 264 260 254 251 246 247 242 233 231 232 229 214 205 216 227 237 244 243 235 230 219 214 213 205 184
302 303 305 306 306 305 305 306 306 305 303 300 297 293 286 281 280 267 264 260 250 245 243 243 245 238 232 228 229 220 210 205 216 229 234 240 233 223 213 210 205 183 171
305 308 308 310 311 310 308 308 309 309 308 305 301 299 294 285 279 273 268 263 247 238 236 231 235 236 227 223 223 222 215 209 212 226 226 232 227 213 208 204 187 175 173
311 311 314 317 318 317 315 310 310 311 311 308 307 305 301 295 288 276 265 258 246 230 224 228 225 227 223 216 208 206 205 205 211 220 221 216 214 206 184 175 178 181 170
312 313 318 319 318 319 318 316 315 315 315 313 311 311 307 302 298 289 270 259 247 232 222 222 216 213 222 218 198 188 191 191 192 183 189 194 191 188 177 173 169 163 153
317 320 321 321 320 319 318 318 319 319 318 318 317 316 312 308 305 301 297 269 252 250 237 231 221 222 227 213 195 192 189 181 171 174 190 194 190 182 177 167 157 155 152
Height
1497 1497 1497 1498 1498 1498 1499 1498 1499 1498 1496 1494 1493 1491 1489 1488 1488 1488 1488 1490 1494 1497 1500 1501 1502 1503 1504 1504 1504 1504 1504 1504 1504 1504 1504 1503 1502 1502 1503 1503 1504 1505 1505
1498 1498 1499 1498 1498 1498 1499 1498 1497 1497 1495 1493 1492 1490 1488 1488 1488 1488 1489 1491 1493 1496 1497 1498 1499 1500 1501 1501 1501 1501 1502 1501 1501 1501 1500 1500 1500 1499 1500 1501 1501 1501 1502
1501 1501 1501 1500 1500 1499 1498 1497 1496 1495 1494 1493 1491 1490 1489 1489 1488 1488 1489 1490 1491 1492 1493 1495 1496 1497 1498 1498 1498 1498 1499 1499 1498 1498 1498 1498 1497 1497 1498 1498 1498 1498 1499
1502 1503 1502 1502 1500 1500 1499 1497 1496 1495 1494 1493 1491 1490 1489 1488 1487 1486 1486 1487 1488 1488 1489 1490 1491 1492 1493 1494 1494 1495 1495 1495 1495 1495 1495 1495 1495 1495 1495 1495 1495 1495 1495
1504 1504 1504 1503 1502 1501 1499 1497 1496 1495 1493 1492 1491 1489 1487 1486 1485 1484 1484 1483 1484 1484 1484 1485 1486 1487 1488 1489 1489 1490 1491 1491 1492 1492 1491 1491 1492 1492 1492 1491 1491 1491 1491
1505 1505 1504 1504 1502 1501 1499 1497 1496 1494 1492 1491 1489 1487 1486 1484 1482 1481 1480 1480 1479 1479 1479 1479 1479 1480 1481 1482 1483 1484 1485 1486 1487 1487 1487 1488 1488 1488 1488 1488 1486 1486 1486
1506 1505 1505 1503 1502 1500 1499 1497 1495 1493 1491 1489 1487 1485 1483 1481 1479 1477 1476 1475 1474 1474 1474 1473 1473 1473 1474 1475 1476 1477 1479 1480 1481 1482 1483 1483 1484 1484 1484 1484 1483 1482 1481
1506 1505 1504 1502 1501 1499 1497 1495 1492 1490 1488 1486 1484 1482 1479 1477 1475 1474 1472 1470 1469 1468 1468 1468 1467 1467 1467 1467 1468 1470 1471 1473 1474 1475 1476 1478 1479 1480 1480 1481 1481 1479 1478
1505 1504 1502 1500 1498 1496 1494 1492 1489 1487 1485 1482 1480 1478 1475 1473 1471 1469 1468 1466 1465 1464 1463 1462 1462 1461 1461 1461 1462 1462 1463 1465 1466 1468 1469 1471 1473 1474 1475 1476 1477 1477 1476
1503 1501 1499 1497 1494 1492 1490 1487 1485 1482 1480 1478 1475 1473 1470 1468 1466 1464 1463 1462 1461 1459 1458 1457 1457 1456 1456 1456 1456 1456 1456 1458 1459 1461 1462 1464 1466 1468 1469 1470 1471 1472 1472
1500 1498 1495 1493 1490 1488 1485 1482 1479 1477 1474 1471 1469 1466 1464 1462 1460 1458 1457 1456 1455 1454 1453 1452 1451 1451 1450 1450 1449 1449 1450 1451 1452 1454 1455 1457 1459 1461 1463 1464 1465 1466 1467
1498 1495 1492 1490 1487 1483 1480 1477 1474 1471 1468 1465 1462 1459 1456 1454 1452 1450 1449 1448 1448 1447 1447 1446 1446 1445 1445 1444 1444 1444 1444 1445 1445 1447 1448 1450 1452 1454 1456 1457 1459 1460 1461
1495 1492 1489 1486 1483 1479 1475 1471 1468 1464 1461 1457 1454 1451 1448 1445 1443 1441 1441 1440 1439 1439 1439 1439 1439 1439 1439 1439 1438 1439 1438 1439 1439 1440 1441 1443 1445 1447 1449 1451 1452 1454 1455
1492 1489 1485 1482 1477 1473 1469 1465 1460 1457 1453 1449 1445 1442 1439 1436 1434 1432 1431 1430 1430 1430 1430 1430 1431 1431 1432 1432 1432 1433 1433 1433 1434 1434 1435 1436 1438 1440 1442 1444 1446 1448 1449
1488 1485 1480 1476 1471 1467 1462 1457 1453 1448 1444 1440 1436 1432 1429 1427 1424 1423 1422 1421 1420 1420 1421 1421 1422 1423 1424 1425 1425 1426 1426 1427 1427 1428 1429 1430 1431 1433 1435 1437 1439 1441 1443
1484 1480 1475 1470 1465 1460 1454 1449 1444 1440 1435 1431 1426 1423 1419 1416 1414 1412 1411 1410 1410 1411 1411 1412 1413 1414 1416 1417 1419 1419 1420 1420 1421 1422 1423 1424 1424 1426 1428 1430 1432 1434 1436
1479 1474 1469 1464 1458 1453 1447 1441 1436 1431 1426 1421 1417 1413 1409 1406 1403 1402 1401 1400 1400 1401 1402 1403 1404 1405 1407 1409 1411 1412 1413 1414 1414 1415 1416 1416 1417 1419 1421 1423 1425 1427 1429
1474 1468 1463 1457 1451 1446 1440 1434 1428 1423 1417 1412 1407 1403 1400 1396 1393 1391 1390 1390 1390 1391 1392 1393 1395 1396 1399 1401 1403 1405 1406 1407 1408 1409 1409 1410 1410 1412 1414 1416 1418 1420 1422
1469 1464 1457 1451 1444 1438 1432 1426 1420 1414 1409 1404 1399 1395 1391 1387 1384 1382 1380 1380 1380 1380 1382 1384 1386 1387 1390 1393 1396 1397 1398 1400 1401 1402 1403 1403 1404 1406 1408 1409 1411 1414 1416
1464 1458 1451 1444 1437 1431 1425 1418 1412 1406 1401 1395 1390 1386 1382 1378 1375 1373 1371 1370 1370 1371 1372 1374 1376 1379 1382 1385 1388 1390 1391 1393 1394 1396 1397 1397 1398 1399 1401 1403 1405 1407 1410
1458 1452 1445 1438 1431 1424 1418 1412 1405 1399 1394 1388 1383 1378 1374 1370 1367 1364 1363 1362 1361 1362 1363 1365 1368 1371 1374 1377 1380 1382 1384 1386 1388 1389 1390 1391 1392 1393 1395 1397 1400 1402 1406
1452 1445 1438 1431 1425 1419 1412 1405 1399 1393 1387 1381 1375 1371 1366 1363 1360 1357 1355 1354 1354 1354 1355 1357 1360 1363 1366 1369 1372 1375 1378 1380 1382 1383 1384 1386 1387 1388 1389 1392 1395 1399 1402
1447 1440 1433 1426 1419 1413 1407 1400 1393 1387 1381 1375 1369 1364 1360 1356 1353 1351 1349 1347 1347 1348 1349 1351 1353 1356 1359 1363 1366 1369 1372 1374 1376 1378 1379 1381 1382 1383 1385 1387 1391 1394 1398
1442 1435 1428 1421 1414 1408 1402 1396 1389 1383 1376 1370 1365 1360 1355 1351 1348 1345 1343 1342 1342 1342 1344 1346 1348 1350 1354 1357 1360 1363 1366 1369 1371 1373 1375 1376 1377 1378 1380 1383 1387 1391 1395
1437 1431 1424 1417 1410 1404 1397 1391 1385 1379 1373 1367 1362 1357 1352 1348 1344 1341 1340 1338 1338 1338 1340 1341 1344 1346 1349 1353 1356 1359 1362 1365 1367 1369 1370 1372 1373 1375 1376 1379 1383 1388 1393
1434 1427 1420 1414 1407 1400 1394 1388 1382 1376 1370 1364 1359 1354 1350 1346 1342 1339 1337 1335 1335 1335 1337 1338 1341 1343 1346 1350 1352 1356 1359 1361 1364 1365 1366 1368 1369 1371 1373 1377 1381 1386 1391